Location: Lombard
(41.8800°N, 88.0080°W)
Time: 12:59:37
(UTC-05:00)

A-11 Canister half - Pass Details

Date: 02 February 2023
Orbit: 1512 x 1687 km, 47.2° (Epoch: 20 March)

Event Time Altitude Azimuth Distance (km) Brightness Sun altitude
Rises 14:46:31 0° 284° (WNW) 4,766 11.9 20.7°
Reaches altitude 10° 14:49:41 10° 287° (WNW) 3,758 11.5 20.3°
Maximum altitude 14:59:08 67° 10° (N) 1,638 9.3 19.1°
Drops below altitude 10° 15:08:20 10° 93° (E) 3,671 10.7 17.9°
Sets 15:11:23 0° 96° (E) 4,649 11.2 17.5°
